Probability
0 0 0 0 0 0 0 0 0 0 0 0 0 0 0 0 0 0 0 0 0 0 0 0 0 0 0 0 0 0 0 0 0 0 0 0 0 0 0 0 0 0 0 0
0 0 0 0 0 0 0 0 0 0 0 0 0 0 0 0 0 0 0 0 0 0 0 0 0 0 0 0 0 0 0 0 0 0 0 0 0 0 0 0 0 0 0 0
0 0 0 0 0 0 0 0 0 0 0 0 0 0 0 0 0 0 0 0 0 0 0 0 0 0 0 0 0 0 0 0 0 0 0 0 0 0 0 0 0 0 0 0
0 0 0 0 0 0 0 0 0 0 0 0 0 0 0 0 0 0 0 0 0 0 0 0 0 0 0 0 0 0 0 0 0 0 0 0 0 0 0 0 0 0 0 0
0 0 0 0 0 0 0 0 0 0 0 0 0 0 0 0 0 0 0 0 0 0 0 0 0 0 0 0 0 0 0 0 0 0 0 0 0 0 0 0 0 0 0 0
0 0 0 0 0 0 0 0 0 0 0 0 0 0 0 0 0 0 0 0 0 0 0 0 0 0 0 0 0 0 0 0 0 0 0 0 0 0 0 0 0 0 0 0
0 0 0 0 0 0 0 0 0 0 0 0 0 0 0 0 0 0 0 0 0 0 0 0 0 0 0 0 0 0 0 0 0 0 0 0 0 0 0 0 0 0 0 0
0 0 0 0 0 0 0 0 0 0 0 0 0 0 0 0 0 0 0 0 0 0 0 0 0 0 0 0 0 0 0 0 0 0 0 0 0 0 0 0 0 0 0 0
0 0 0 0 0 0 0 0 0 0 0 0 0 0 0 0 0 0 0 0 0 0 0 0 0 0 0 0 0 0 0 0 0 0 0 0 0 0 0 0 0 0 0 0
0 0 0 0 0 0 0 0 0 0 0 0 0 0 0 0 0 0 0 0 0 0 0 0 0 0 0 0 0 0 0 0 0 0 0 0 0 0 0 0 0 0 0 0
0 0 0 0 0 0 0 0 0 0 0 0 0 0 0 0 0 0 0 0 0 0 0 0 0 0 0 0 0 0 0 0 0 0 0 0 0 0 0 0 0 0 0 0
0 0 0 0 0 0 0 0 0 0 0 0 0 0 0 0 0 0 0 0 0 0 0 0 0 0 0 0 0 0 0 0 0 0 0 0 0 0 0 0 0 0 0 0
0 0 0 0 0 0 0 0 0 0 0 0 0 0 0 0 0 0 0 0 0 0 0 0 0 0 0 0 0 0 0 0 0 0 0 0 0 0 0 0 0 0 0 0
0 0 0 0 0 0 0 0 0 0 0 0 0 0 0 0 0 0 0 0 0 0 0 0 0 0 0 0 0 0 0 0 0 0 0 0 0 0 0 0 0 0 0 0
0 0 0 0 0 0 0 0 0 0 0 0 0 0 0 0 0 0 0 0 0 0 0 0 0 0 0 0 0 0 0 0 0 0 0 0 0 0 0 0 0 0 0 0
0 0 0 0 0 0 0 0 0 0 0 0 0 0 0 0 0 0 0 0 0 0 0 0 0 0 0 0 0 0 0 0 0 0 0 0 0 0 0 0 0 0 0 0
0 0 0 0 0 0 0 0 0 0 0 0 0 0 0 0 0 0 0 0 0 0 0 0 0 0 0 0 0 0 0 0 0 0 0 0 0 0 0 0 0 0 0 0
0 0 0 0 0 0 0 0 0 0 0 0 0 0 0 0 0 0 0 0 0 0 0 0 0 0 0 0 0 0 0 0 0 0 0 0 0 0 0 0 0 0 0 0
0 0 0 0 0 0 0 0 0 0 0 0 0 0 0 0 0 0 0 0 0 0 0 0 0 0 0 0 0 0 0 0 0 0 0 0 0 0 0 0 0 0 0 0
0 0 0 0 0 0 0 0 0 0 0 0 0 0 0 0 0 0 0 0 0 0 0 0 0 0 0 0 0 0 0 0 0 0 0 0 0 0 0 0 0 0 0 0
0 0 0 0 0 0 0 0 0 0 0 0 0 0 0 0 0 0 0 0 0 0 0 0 0 0 0 0 0 0 0 0 0 0 0 0 0 0 0 0 0 0 0 0
0 0 0 0 0 0 0 0 0 0 0 0 0 0 0 0 0 0 0 0 0 0 0 0 0 0 0 0 0 0 0 0 0 0 0 0 0 0 0 0 0 0 0 0
0 0 0 0 0 0 0 0 0 0 0 0 0 0 0 0 0 0 0 0 0 0 0 0 0 0 0 0 0 0 0 0 0 0 0 0 0 0 0 0 0 0 0 0
0 0 0 0 0 0 0 0 0 0 0 0 0 0 0 0 0 0 0 0 0 0 0 0 0 0 0 0 0 0 0 0 0 0 0 0 0 0 0 0 0 0 0 0
0 0 0 0 0 0 0 0 0 0 0 0 0 0 0 0 0 0 0 0 0 0 0 0 0 0 0 0 0 0 0 0 0 0 0 0 0 0 0 0 0 0 0 0
0 0 0 0 0 0 0 0 0 0 0 0 0 0 0 0 0 0 0 0 0 0 0 0 0 0 0 0 0 0 0 0 0 0 0 0 0 0 0 0 0 0 0 0
0 0 0 0 0 0 0 0 0 0 0 0 0 0 0 0 0 0 0 0 0 0 0 0 0 0 0 0 0 0 0 0 0 0 0 0 0 0 0 0 0 0 0 0
Wind_Speed
14 11 9 11 16 23 26 26 19 19 21 17 12 14 13 11 12 13 14 16 18 17 16 15 15 14 14 13 13 12 11 11 10 9 8 8 8 8 7 7 7 7 6 5
14 13 11 11 17 22 26 23 28 25 26 11 11 12 12 14 15 16 16 18 18 16 15 17 17 16 15 14 13 12 12 12 10 10 9 9 9 8 8 7 6 6 6 6
16 11 8 23 29 19 21 21 18 30 32 9 12 14 17 18 18 18 18 18 18 17 17 16 16 15 16 14 12 13 12 10 10 10 10 10 9 9 9 8 7 7 7 7
8 10 25 25 12 23 28 27 23 20 11 12 17 15 14 15 19 18 16 15 14 13 13 11 11 12 11 10 12 12 11 10 10 10 10 9 9 9 9 7 7 7 8 8
10 19 21 22 9 13 19 28 27 26 19 10 8 5 6 7 13 15 13 11 11 11 10 11 11 12 11 11 11 12 12 12 11 11 11 10 10 10 8 7 7 8 6 7
14 14 16 13 4 11 14 23 15 19 19 12 13 12 10 7 7 8 8 8 9 9 9 11 11 12 12 11 12 13 13 12 11 10 11 11 11 9 7 7 7 7 7 7
23 20 13 6 2 8 13 13 2 11 13 14 15 8 6 10 8 8 8 8 9 11 10 10 11 12 12 11 13 11 9 9 9 10 10 10 8 6 6 6 6 6 6 6
15 19 15 5 5 9 5 1 2 2 5 8 7 7 8 9 9 9 8 8 9 9 8 8 10 12 12 11 10 8 9 9 9 9 8 7 8 7 6 7 7 6 6 6
8 5 1 2 2 1 2 3 3 3 5 8 7 6 6 7 8 8 8 9 7 9 9 8 8 10 12 9 8 9 9 8 7 7 6 7 8 8 6 6 6 6 6 7
3 2 2 3 3 2 3 3 4 4 5 5 6 7 7 8 8 8 7 7 7 9 9 7 7 7 7 7 9 9 9 8 7 7 6 6 5 6 7 8 8 7 7 7
4 2 2 3 4 3 1 2 4 4 3 4 6 6 7 7 7 7 6 6 7 8 8 8 7 7 5 7 8 8 7 7 6 6 6 6 6 6 7 6 7 7 6 5
5 8 6 6 8 7 4 3 3 3 3 2 4 6 6 6 6 7 7 6 6 6 7 6 6 6 5 6 8 8 6 6 6 5 5 5 5 4 10 10 12 14 12 9
6 8 6 4 6 8 7 4 4 4 4 3 3 4 5 5 5 5 5 6 7 7 6 5 5 4 3 5 6 7 6 6 5 5 5 5 5 4 3 5 11 12 13 13
4 6 3 2 2 4 4 4 4 3 2 2 3 3 3 3 3 4 5 5 4 4 4 4 5 3 2 4 5 5 5 5 5 5 5 4 4 3 3 3 2 2 5 9
3 5 4 4 6 5 4 5 4 3 2 2 2 3 3 4 4 3 1 3 4 4 3 4 5 3 2 4 5 5 5 4 4 4 4 4 3 3 2 2 1 1 1 3
3 4 5 5 5 4 4 3 3 2 2 2 1 2 2 2 3 4 4 3 4 3 3 4 4 3 3 4 6 5 4 6 5 4 4 4 3 3 2 2 2 2 3 3
3 2 2 2 2 2 2 2 2 2 2 2 1 1 3 4 4 4 5 5 6 6 5 5 5 4 4 4 5 4 5 5 6 5 4 3 3 2 2 2 2 2 3 4
7 7 6 5 4 4 5 7 7 6 5 4 3 3 3 3 3 4 5 6 7 7 6 5 5 5 5 4 4 4 5 4 4 4 3 3 2 2 2 2 2 3 3 4
10 10 10 10 8 7 7 7 7 6 6 5 5 5 5 5 6 6 6 6 6 4 2 1 7 6 5 4 5 4 5 5 4 4 3 3 2 2 2 2 3 3 3 3
10 10 9 10 10 9 7 6 6 6 7 5 6 8 8 7 6 6 7 6 4 2 3 4 5 5 4 4 5 4 4 4 4 3 3 2 2 2 3 3 4 4 4 4
9 9 9 8 9 9 8 7 6 7 7 7 8 7 7 6 5 5 5 5 3 3 4 5 4 3 3 3 4 3 3 3 3 2 2 2 2 3 3 4 4 4 4 4
6 7 7 7 7 8 7 7 7 7 7 8 8 7 7 6 6 6 6 4 3 3 3 3 3 4 4 3 2 3 2 2 2 2 2 2 3 3 4 4 4 4 4 5
5 5 6 6 6 5 6 8 8 7 7 7 7 6 6 5 3 3 4 2 2 3 3 2 3 4 4 2 2 2 2 2 2 2 3 3 4 4 4 5 4 4 4 5
5 5 5 5 5 7 8 6 6 5 6 6 6 6 4 4 4 5 3 3 3 3 2 2 2 3 3 1 1 1 2 2 3 3 3 3 3 4 4 4 5 5 5 6
5 5 6 6 6 5 4 3 4 5 5 5 5 6 5 4 3 2 2 2 2 2 1 1 1 2 1 0 1 1 2 3 3 3 3 3 4 4 5 5 5 5 5 5
5 5 4 5 4 4 3 3 3 3 3 3 3 3 3 3 3 2 1 1 1 1 1 1 1 1 1 2 2 3 3 3 4 4 4 5 5 5 5 5 7 5 5 6
5 4 4 5 5 5 4 4 4 4 3 3 2 2 3 2 2 2 2 1 1 1 1 1 2 2 2 2 3 3 3 4 4 4 4 4 5 5 5 6 5 5 5 6
Wind_Direction
239 229 187 188 202 209 216 222 231 241 240 234 209 209 206 188 176 178 182 186 188 189 186 182 180 180 180 178 173 171 170 174 177 172 167 165 165 166 168 170 172 170 171 177
245 238 239 241 224 212 218 227 236 247 249 222 213 200 190 182 182 187 190 193 194 190 185 184 184 181 180 180 174 171 176 182 174 169 169 171 170 168 170 175 175 172 181 184
241 229 235 243 235 217 222 222 223 240 247 223 219 204 194 186 186 192 194 194 194 192 190 187 184 179 180 177 167 171 178 177 173 171 174 175 170 171 181 184 182 188 193 194
241 219 236 246 223 215 228 235 226 235 239 202 214 212 201 186 183 191 192 191 191 187 184 176 168 168 164 161 165 173 176 176 174 173 177 173 173 184 189 185 191 197 202 204
226 242 254 263 215 191 212 239 228 232 237 213 189 179 218 186 177 183 181 177 177 175 169 162 161 159 154 160 164 172 180 181 180 178 176 177 187 193 191 189 197 201 201 202
226 234 238 256 190 177 179 243 227 213 222 192 154 194 217 173 147 142 142 146 150 149 144 152 155 148 153 163 168 182 186 184 180 178 181 188 195 193 186 191 200 198 209 204
231 239 243 254 216 143 183 241 226 198 197 174 185 199 147 135 128 129 130 132 136 139 145 152 147 147 157 166 185 188 174 169 173 181 187 190 186 181 181 185 188 199 213 215
225 235 238 171 164 184 205 23 25 115 146 146 123 105 110 121 127 129 129 133 136 136 138 140 145 151 162 183 185 161 159 167 176 180 180 177 176 178 176 177 188 202 214 231
206 223 52 100 148 41 56 76 42 72 103 118 117 123 123 131 138 142 143 143 139 137 135 141 155 161 172 183 157 152 159 170 173 169 170 169 174 176 171 177 193 206 211 229
110 87 54 10 353 2 35 58 53 71 106 119 127 137 139 143 148 149 147 147 139 138 145 159 172 180 176 155 150 154 165 170 165 167 172 170 174 176 181 190 199 208 213 224
103 109 103 304 271 260 319 51 63 67 83 119 130 141 149 152 157 155 148 146 149 157 168 177 174 182 170 152 150 160 167 168 168 173 175 180 190 198 196 202 199 204 213 211
176 179 173 205 219 217 211 212 167 132 116 118 148 154 152 158 160 155 154 151 158 171 180 181 173 178 167 161 160 162 170 175 176 175 177 178 184 216 236 227 232 238 234 227
156 181 187 193 204 201 205 203 168 168 167 160 157 153 153 158 162 156 157 165 178 186 186 174 164 162 158 159 162 172 178 176 172 171 171 175 178 187 218 245 242 245 249 253
144 139 159 171 157 166 159 142 128 121 125 132 139 131 137 139 143 164 181 187 175 159 153 150 145 141 126 138 149 161 162 159 157 159 158 163 170 174 177 187 217 263 271 273
89 77 94 94 84 84 90 101 106 116 118 109 118 140 155 169 180 174 126 109 114 116 119 126 130 121 95 123 136 142 141 134 128 125 126 129 131 134 140 161 204 240 276 294
115 85 70 79 87 89 90 99 113 126 127 133 146 181 178 145 110 87 64 77 118 125 119 118 119 114 105 115 120 115 111 117 115 117 117 119 124 136 154 182 213 234 245 252
90 89 73 85 83 84 80 72 67 57 59 57 44 99 115 112 103 91 68 60 76 78 74 94 107 102 98 107 116 116 111 113 115 116 124 133 141 158 175 197 222 241 250 266
35 44 46 56 54 60 55 47 43 43 38 20 34 74 99 127 140 125 109 95 87 73 58 75 102 95 86 84 91 103 112 119 122 123 125 131 140 156 182 212 238 256 264 285
31 39 44 42 32 46 50 41 32 31 19 20 55 69 69 71 91 107 108 101 99 97 78 109 119 100 95 103 102 98 112 120 120 121 127 135 146 182 209 225 242 253 264 268
33 37 47 50 44 46 44 29 29 37 23 30 71 79 73 66 80 94 91 77 54 83 111 94 96 100 98 100 103 104 114 123 130 137 145 160 186 212 226 235 242 248 253 257
27 32 41 48 52 45 35 29 40 45 35 43 70 83 85 75 72 85 97 91 58 71 96 99 100 106 106 108 103 108 113 120 130 146 165 190 214 231 239 244 247 249 251 254
23 33 41 45 56 48 30 31 44 54 56 59 67 78 84 79 75 66 59 86 115 107 103 99 103 116 128 127 120 124 133 142 158 178 198 214 225 237 245 248 250 252 253 255
32 39 47 46 55 60 47 40 42 50 55 55 56 59 65 60 51 82 89 80 102 111 99 98 126 143 140 137 141 150 165 184 204 215 221 227 231 236 243 250 251 253 257 258
42 45 47 49 60 63 54 40 43 51 59 59 47 40 45 63 53 45 76 91 77 82 88 134 154 134 132 146 166 187 206 219 228 234 238 240 243 246 248 252 257 258 258 261
47 48 45 50 54 54 59 59 57 54 58 55 47 39 34 38 67 62 57 62 64 59 48 32 44 72 73 171 229 238 243 242 242 242 246 251 253 253 254 254 254 258 258 258
53 57 57 55 44 31 29 41 50 42 45 53 44 33 29 29 42 50 52 60 43 13 351 343 339 309 264 254 251 252 253 258 259 251 246 249 252 254 257 257 259 258 260 261
60 56 54 50 34 25 27 36 44 37 29 34 34 21 15 10 11 11 2 353 339 319 299 284 271 261 256 256 258 258 256 255 254 253 253 252 253 255 259 261 261 261 263 264